EP, 16, 1967102100,   , BEST,   0, 126N, 1155W,  25,     , TD, , , , , , , , , , , , , ,     RAMONA
EP, 16, 1967102106,   , BEST,   0, 130N, 1165W,  25,     , TD, , , , , , , , , , , , , ,     RAMONA
EP, 16, 1967102112,   , BEST,   0, 133N, 1176W,  25,     , TD, , , , , , , , , , , , , ,     RAMONA
EP, 16, 1967102118,   , BEST,   0, 134N, 1187W,  25,     , TD, , , , , , , , , , , , , ,     RAMONA
EP, 16, 1967102200,   , BEST,   0, 134N, 1197W,  45,     , TS, , , , , , , , , , , , , ,     RAMONA
EP, 16, 1967102206,   , BEST,   0, 133N, 1204W,  45,     , TS, , , , , , , , , , , , , ,     RAMONA
EP, 16, 1967102212,   , BEST,   0, 132N, 1211W,  45,     , TS, , , , , , , , , , , , , ,     RAMONA
EP, 16, 1967102218,   , BEST,   0, 131N, 1218W,  45,     , TS, , , , , , , , , , , , , ,     RAMONA
EP, 16, 1967102300,   , BEST,   0, 130N, 1225W,  45,     , TS, , , , , , , , , , , , , ,     RAMONA
EP, 16, 1967102306,   , BEST,   0, 129N, 1233W,  45,     , TS, , , , , , , , , , , , , ,     RAMONA
EP, 16, 1967102312,   , BEST,   0, 127N, 1240W,  45,     , TS, , , , , , , , , , , , , ,     RAMONA
EP, 16, 1967102318,   , BEST,   0, 124N, 1249W,  45,     , TS, , , , , , , , , , , , , ,     RAMONA
EP, 16, 1967102400,   , BEST,   0, 121N, 1258W,  45,     , TS, , , , , , , , , , , , , ,     RAMONA
EP, 16, 1967102406,   , BEST,   0, 119N, 1265W,  45,     , TS, , , , , , , , , , , , , ,     RAMONA
EP, 16, 1967102412,   , BEST,   0, 116N, 1273W,  45,     , TS, , , , , , , , , , , , , ,     RAMONA
EP, 16, 1967102418,   , BEST,   0, 112N, 1281W,  45,     , TS, , , , , , , , , , , , , ,     RAMONA
EP, 16, 1967102500,   , BEST,   0, 110N, 1290W,  25,     , TD, , , , , , , , , , , , , ,     RAMONA
EP, 16, 1967102506,   , BEST,   0, 116N, 1298W,  25,     , TD, , , , , , , , , , , , , ,     RAMONA
EP, 16, 1967102512,   , BEST,   0, 129N, 1303W,  25,     , TD, , , , , , , , , , , , , ,     RAMONA
EP, 16, 1967102518,   , BEST,   0, 138N, 1304W,  25,     , TD, , , , , , , , , , , , , ,     RAMONA
EP, 16, 1967102600,   , BEST,   0, 146N, 1304W,  25,     , TD, , , , , , , , , , , , , ,     RAMONA
EP, 16, 1967102606,   , BEST,   0, 150N, 1314W,  25,     , TD, , , , , , , , , , , , , ,     RAMONA
EP, 16, 1967102612,   , BEST,   0, 150N, 1323W,  25,     , TD, , , , , , , , , , , , , ,     RAMONA
EP, 16, 1967102618,   , BEST,   0, 149N, 1327W,  25,     , TD, , , , , , , , , , , , , ,     RAMONA
EP, 16, 1967102700,   , BEST,   0, 149N, 1331W,  25,     , TD, , , , , , , , , , , , , ,     RAMONA
EP, 16, 1967102706,   , BEST,   0, 150N, 1337W,  25,     , TD, , , , , , , , , , , , , ,     RAMONA
EP, 16, 1967102712,   , BEST,   0, 151N, 1343W,  25,     , TD, , , , , , , , , , , , , ,     RAMONA
EP, 16, 1967102718,   , BEST,   0, 152N, 1350W,  25,     , TD, , , , , , , , , , , , , ,     RAMONA
EP, 16, 1967102800,   , BEST,   0, 152N, 1358W,  25,     , TD, , , , , , , , , , , , , ,     RAMONA
EP, 16, 1967102806,   , BEST,   0, 153N, 1365W,  25,     , TD, , , , , , , , , , , , , ,     RAMONA
EP, 16, 1967102812,   , BEST,   0, 155N, 1373W,  25,     , TD, , , , , , , , , , , , , ,     RAMONA
EP, 16, 1967102818,   , BEST,   0, 155N, 1386W,  25,     , TD, , , , , , , , , , , , , ,     RAMONA
EP, 16, 1967102900,   , BEST,   0, 156N, 1399W,  25,     , TD, , , , , , , , , , , , , ,     RAMONA
EP, 16, 1967102906,   , BEST,   0, 158N, 1405W,  25,     , TD, , , , , , , , , , , , , ,     RAMONA
EP, 16, 1967102912,   , BEST,   0, 159N, 1411W,  25,     , TD, , , , , , , , , , , , , ,     RAMONA
EP, 16, 1967102918,   , BEST,   0, 159N, 1419W,  45,     , TS, , , , , , , , , , , , , ,     RAMONA
EP, 16, 1967103000,   , BEST,   0, 160N, 1426W,  45,     , TS, , , , , , , , , , , , , ,     RAMONA
EP, 16, 1967103006,   , BEST,   0, 161N, 1430W,  45,     , TS, , , , , , , , , , , , , ,     RAMONA
EP, 16, 1967103012,   , BEST,   0, 162N, 1433W,  45,     , TS, , , , , , , , , , , , , ,     RAMONA
EP, 16, 1967103018,   , BEST,   0, 163N, 1439W,  45,     , TS, , , , , , , , , , , , , ,     RAMONA
EP, 16, 1967103100,   , BEST,   0, 164N, 1445W,  45,     , TS, , , , , , , , , , , , , ,     RAMONA
EP, 16, 1967103106,   , BEST,   0, 164N, 1448W,  45,     , TS, , , , , , , , , , , , , ,     RAMONA
EP, 16, 1967103112,   , BEST,   0, 165N, 1452W,  45,     , TS, , , , , , , , , , , , , ,     RAMONA
EP, 16, 1967103118,   , BEST,   0, 166N, 1456W,  45,     , TS, , , , , , , , , , , , , ,     RAMONA
EP, 16, 1967110100,   , BEST,   0, 166N, 1460W,  45,     , TS, , , , , , , , , , , , , ,     RAMONA
EP, 16, 1967110106,   , BEST,   0, 167N, 1464W,  45,     , TS, , , , , , , , , , , , , ,     RAMONA
EP, 16, 1967110112,   , BEST,   0, 168N, 1467W,  45,     , TS, , , , , , , , , , , , , ,     RAMONA
EP, 16, 1967110118,   , BEST,   0, 170N, 1471W,  45,     , TS, , , , , , , , , , , , , ,     RAMONA
EP, 16, 1967110200,   , BEST,   0, 172N, 1474W,  45,     , TS, , , , , , , , , , , , , ,     RAMONA
EP, 16, 1967110206,   , BEST,   0, 176N, 1476W,  45,     , TS, , , , , , , , , , , , , ,     RAMONA
EP, 16, 1967110212,   , BEST,   0, 180N, 1477W,  45,     , TS, , , , , , , , , , , , , ,     RAMONA
EP, 16, 1967110218,   , BEST,   0, 187N, 1477W,  45,     , TS, , , , , , , , , , , , , ,     RAMONA
EP, 16, 1967110300,   , BEST,   0, 195N, 1476W,  45,     , TS, , , , , , , , , , , , , ,     RAMONA
EP, 16, 1967110306,   , BEST,   0, 210N, 1476W,  45,     , TS, , , , , , , , , , , , , ,     RAMONA
EP, 16, 1967110312,   , BEST,   0, 225N, 1477W,  45,     , TS, , , , , , , , , , , , , ,     RAMONA
